Regional Weather Roundup
Issued by NWS

Home | Current Version | Previous Version | Graphics & Text | Print | Product List | Glossary On
Versions: 1 2 3 4 5 6 7 8 9 10 11 12 13 14 15 16 17 18 19 20 21 22 23 24 25 26 27 28 29 30 31 32 33 34 35 36 37 38 39 40 41 42 43 44 45 46 47 48 49 50
000
ASUS43 KDMX 241908
RWRIA

WEATHER ROUNDUP FOR IOWA
NATIONAL WEATHER SERVICE DES MOINES IA
200 PM CDT SUN JUL 24 2016

NOTE: "FAIR" INDICATES FEW OR NO CLOUDS BELOW 12,000 FEET WITH NO
SIGNIFICANT WEATHER AND/OR OBSTRUCTIONS TO VISIBILITY.

* - THESE STATIONS ARE NOT NWS STATIONS...THUS NOT UNDER NWS
QUALITY CONTROL.  THEY ALSO DO NOT REPORT WEATHER SUCH
AS PRECIPITATION OR FOG.

IAZ001>003-012>014-020>022-031>034-043>046-242000-
   NORTHWEST IOWA

CITY           SKY/WX    TMP DP  RH WIND       PRES   REMARKS
CARROLL *      CLOUDY    82  68  61 N7        29.98S HX  85
CHEROKEE *     MOSUNNY   84  65  52 W7        30.00R HX  85
LE MARS *      SUNNY     84  63  48 NW15      30.05R HX  85
SHELDON *      CLOUDY    79  66  65 NW9       30.03R HX  81
SIOUX CITY     PTSUNNY   89  61  38 NW15      30.02R HX  89
SPENCER        CLOUDY    82  62  50 NW10      29.99S HX  83
STORM LAKE *   CLOUDY    81  64  57 MISG      30.01F HX  82
$$

IAZ055>058-069>071-079>083-090>094-242000-
   SOUTHWEST IOWA

CITY           SKY/WX    TMP DP  RH WIND       PRES   REMARKS
ATLANTIC *     CLOUDY    82  66  57 N9        29.97S HX  85
CLARINDA *       N/A     86  72  62 MISG      29.96F HX  92
COUNCIL BLFS * CLOUDY    81  66  61 N9        29.99S HX  83
CRESTON *      PTSUNNY   84  68  58 N12       29.97F HX  87
HARLAN  *      CLOUDY    81  68  65 N7        30.02S HX  83
LAMONI         CLOUDY    85  79  82 N10       29.93S HX  98
RED OAK *      CLOUDY    86  66  51 NE14      29.97S HX  88
SHENANDOAH *   CLOUDY    84  70  61 N9        29.97R HX  88
$$

IAZ047>049-059>061-072>074-084-242000-
   CENTRAL IOWA

CITY           SKY/WX    TMP DP  RH WIND       PRES   REMARKS
AMES           CLOUDY    85  67  54 N13       29.94S HX  87
ANKENY *         N/A    N/A N/A N/A MISG        N/A
BOONE *        PTSUNNY   84  68  58 N9        29.95F HX  87
CHARITON *       N/A    N/A N/A N/A MISG        N/A
DES MOINES     CLOUDY    87  66  49 N10       29.93S HX  89
GRINNELL*      MOSUNNY   84  75  72 NW10G16   29.93S HX  92
KNOXVILLE *    MOSUNNY   86  73  66 NW17      29.91S HX  93
MARSHALLTOWN   MOSUNNY   84  67  56 NW12      29.92S HX  86
NEWTON *       PTSUNNY   86  73  66 N15       29.92S HX  93
PELLA *        CLOUDY    87  76  70 N9        29.92  HX  96
PERRY *          N/A     84  70  63 N9        29.96F HX  88
$$

IAZ004>006-015-016-023>025-035-036-242000-
   NORTH CENTRAL IOWA

CITY           SKY/WX    TMP DP  RH WIND       PRES   REMARKS
ALGONA *       MOSUNNY   82  64  54 NW12      29.99R HX  84
ESTHERVILLE    MOSUNNY   76  62  62 N6        29.97F
FORT DODGE *   PTSUNNY   82  64  54 N5        29.98S HX  84
MASON CITY     SUNNY     82  65  56 NW12      29.96R HX  84
FOREST CITY *    N/A     81  63  54 NW13G18   29.96R HX  82
IOWA FALLS *     N/A     85  67  55 NW8       29.95S HX  87
$$

IAZ007>011-017>019-026>030-037>042-050>054-066-242000-
   NORTHEAST IOWA

CITY           SKY/WX    TMP DP  RH WIND       PRES   REMARKS
CEDAR RAPIDS   CLOUDY    84  80  88 N9        29.89S HX  97
CHARLES CITY * SUNNY     82  66  57 NW9       29.93S HX  85
CLINTON *      CLOUDY    89  82  79 SW7       29.87S HX 110
DECORAH *      SUNNY     84  66  54 NW10      29.89S HX  86
DUBUQUE        CLOUDY    83  78  85 W7        29.90R HX  93
MONTICELLO *   CLOUDY    84  79  84 W5        29.88S HX  96
OELWEIN *      SUNNY     84  70  61 NW12G20   29.91S HX  88
WATERLOO       SUNNY     86  64  47 N15       29.89S HX  87
$$

IAZ064-065-067-068-078-242000-
   EAST CENTRAL IOWA

CITY           SKY/WX    TMP DP  RH WIND       PRES   REMARKS
DAVENPORT      MOSUNNY   88  79  74 SW12      29.88S HX 103
IOWA CITY      PTSUNNY   89  79  72 NW14      29.89R HX 104
MT. PLEASANT * CLOUDY    89  79  72 W6        29.90R HX 103
MUSCATINE *    PTSUNNY   90  79  70 VRB6      29.88S HX 105
QUAD CITIES    MOSUNNY   92  77  61 W10       29.86S HX 105
$$

IAZ062-063-075>077-085>089-095>099-242000-
   SOUTHEAST IOWA

CITY           SKY/WX    TMP DP  RH WIND       PRES   REMARKS
BURLINGTON     CLOUDY    91  80  70 SW8       29.88S HX 109
FAIRFIELD *    CLOUDY    88  79  74 W6        29.89S HX 102
KEOKUK *       CLOUDY    91  77  62 W7        29.88S HX 105
CENTERVILLE *    N/A     86  79  79 NW3       29.93R HX  99
OTTUMWA        PTSUNNY   87  79  76 NW13      29.89R HX 101
WASHINGTON *   PTSUNNY   90  81  74 W6        29.89S HX 108
$$

ABBREVIATIONS USED IN REMARKS
   TC - TEMPERATURES IN CELSIUS
  WCI - WIND CHILL INDEX
   HX - HEAT INDEX
  VSB - VISIBILITY
$$





USA.gov is the U.S. government's official web portal to all federal, state and local government web resources and services.